EW6810 Weather Reports


Display with metric or nautical units.
time (UTC)temp
F
wind
direction
speed
MPH
gust
MPH
rain 1hr
in
rain 24hr
in
rain mn
in
humidity
%
barometer
mb
20260904171035 56 354 1.0 3.0 0.00 0.01 0.00 86 1010.5
20260904170638 56 354 0.0 3.0 0.00 0.01 0.00 87 1010.6
20260904170049 56 349 0.0 2.0 0.00 0.01 0.00 86 1010.5
20260904165548 56 349 0.0 2.0 0.00 0.03 0.00 86 1010.5
20260904165045 56 349 0.0 2.0 0.00 0.03 0.00 85 1010.5
20260904164546 56 3 0.0 2.0 0.00 0.03 0.00 84 1010.5
20260904164045 56 358 0.0 2.0 0.00 0.03 0.00 84 1010.5
20260904163544 56 358 0.0 2.0 0.00 0.03 0.00 85 1010.5
20260904163051 56 358 0.0 1.0 0.00 0.03 0.00 86 1010.4
20260904162542 55 358 0.0 0.0 0.00 0.03 0.00 86 1010.5
20260904162040 55 358 0.0 0.0 0.00 0.03 0.00 87 1010.5
20260904161540 55 358 0.0 0.0 0.00 0.03 0.00 87 1010.5
20260904161039 55 358 0.0 0.0 0.00 0.03 0.00 88 1010.5
20260904160640 55 358 0.0 1.0 0.00 0.03 0.00 88 1010.4
20260904160106 55 358 0.0 1.0 0.00 0.03 0.00 90 1010.4
20260904155601 54 358 0.0 1.0 0.00 0.03 0.00 91 1010.4
20260904155056 54 358 0.0 2.0 0.00 0.03 0.00 92 1010.3
20260904154555 53 358 0.0 2.0 0.00 0.03 0.00 93 1010.2
20260904154054 52 358 0.0 0.0 0.00 0.03 0.00 92 1010.2
20260904153553 52 358 0.0 0.0 0.00 0.03 0.00 93 1010.2
20260904153114 52 358 0.0 0.0 0.00 0.03 0.00 92 1010.1
20260904152554 52 358 0.0 0.0 0.00 0.03 0.00 92 1010.0
20260904152050 52 358 0.0 0.0 0.00 0.03 0.00 92 1009.9
20260904151552 51 358 0.0 0.0 0.00 0.03 0.00 92 1009.9
20260904151048 51 358 0.0 0.0 0.00 0.03 0.00 92 1009.8
20260904150649 51 358 0.0 1.0 0.00 0.03 0.00 92 1009.8
20260904150037 51 358 0.0 2.0 0.00 0.03 0.00 92 1009.8
20260904145534 51 358 0.0 2.0 0.00 0.03 0.00 92 1009.7
20260904145031 51 2 0.0 2.0 0.00 0.03 0.00 92 1009.7
20260904144532 51 1 0.0 3.0 0.00 0.03 0.00 92 1009.6
20260904144033 51 1 1.0 3.0 0.00 0.03 0.00 92 1009.4
20260904143532 51 13 0.0 3.0 0.00 0.03 0.00 92 1009.5
20260904143032 51 313 0.0 3.0 0.00 0.03 0.00 92 1009.5
20260904142530 50 356 0.0 3.0 0.00 0.03 0.00 92 1009.6
20260904142034 50 275 0.0 2.0 0.00 0.03 0.00 92 1009.7
20260904141527 50 48 0.0 3.0 0.00 0.03 0.00 92 1009.6
20260904141027 50 48 0.0 3.0 0.00 0.03 0.00 92 1009.6
20260904140527 50 47 0.0 1.0 0.00 0.03 0.00 92 1009.5
20260904140025 50 47 0.0 3.0 0.00 0.03 0.00 92 1009.3
20260904135524 50 47 0.0 3.0 0.00 0.04 0.00 92 1009.3
20260904135124 50 47 0.0 1.0 0.00 0.04 0.00 92 1009.3
20260904134521 50 47 0.0 2.0 0.00 0.04 0.00 92 1009.2
20260904134021 50 47 0.0 2.0 0.00 0.04 0.00 92 1009.2
20260904133521 50 47 0.0 1.0 0.00 0.04 0.00 92 1009.1
20260904133020 50 47 0.0 2.0 0.00 0.04 0.00 92 1009.1
20260904132520 50 47 0.0 2.0 0.00 0.04 0.00 92 1009.1
20260904132020 50 101 0.0 1.0 0.00 0.04 0.00 92 1009.0
20260904131520 50 101 0.0 2.0 0.00 0.04 0.00 92 1009.0
20260904131018 50 101 0.0 3.0 0.00 0.04 0.00 92 1008.9
20260904130517 50 106 0.0 3.0 0.00 0.04 0.00 92 1008.8
20260904130018 50 69 1.0 2.0 0.00 0.04 0.00 92 1008.8
20260904125516 50 67 1.0 2.0 0.00 0.04 0.00 92 1008.8
20260904125018 50 67 0.0 2.0 0.00 0.04 0.00 92 1008.7
20260904124523 50 67 0.0 2.0 0.00 0.04 0.00 92 1008.6
20260904124013 50 67 0.0 2.0 0.00 0.04 0.00 92 1008.5
20260904123514 50 67 0.0 2.0 0.00 0.04 0.00 92 1008.4
20260904123012 50 67 1.0 2.0 0.00 0.04 0.00 92 1008.5
20260904122511 50 67 0.0 2.0 0.00 0.04 0.00 92 1008.3
20260904122009 50 97 0.0 2.0 0.00 0.04 0.00 92 1008.2
20260904121509 50 97 0.0 2.0 0.00 0.04 0.00 92 1008.1
20260904121010 50 97 0.0 1.0 0.00 0.04 0.00 92 1008.0
20260904120508 50 97 0.0 1.0 0.00 0.04 0.00 92 1008.0
20260904120011 50 97 0.0 2.0 0.00 0.04 0.00 92 1008.0
20260904115507 50 97 0.0 2.0 0.00 0.04 0.00 92 1008.0
20260904115007 50 97 0.0 2.0 0.00 0.04 0.00 92 1008.1
20260904114507 51 97 0.0 2.0 0.00 0.04 0.00 92 1008.1
20260904114007 51 97 0.0 2.0 0.00 0.04 0.00 92 1008.0
20260904113506 51 214 1.0 3.0 0.00 0.04 0.00 92 1008.0
20260904113004 51 214 1.0 3.0 0.00 0.04 0.00 92 1007.9
20260904112504 51 252 1.0 3.0 0.00 0.04 0.00 92 1007.9
20260904112004 51 337 0.0 3.0 0.00 0.04 0.00 92 1007.9
20260904111506 51 341 0.0 7.0 0.00 0.04 0.00 92 1007.8
20260904111004 51 1 2.0 7.0 0.00 0.04 0.00 92 1007.8
20260904110504 51 267 0.0 3.0 0.00 0.04 0.00 92 1007.8
20260904110004 51 7 1.0 3.0 0.00 0.04 0.00 92 1007.8
20260904105503 51 15 0.0 2.0 0.00 0.04 0.00 92 1007.8
20260904105003 51 15 0.0 2.0 0.00 0.04 0.00 92 1007.8
20260904104503 51 15 0.0 2.0 0.00 0.04 0.00 92 1007.8
20260904104002 51 15 0.0 2.0 0.00 0.04 0.00 92 1007.7
20260904103503 51 15 0.0 2.0 0.00 0.04 0.00 92 1007.8
20260904103001 51 15 0.0 3.0 0.00 0.04 0.00 92 1007.8
20260904102604 51 15 1.0 3.0 0.00 0.04 0.00 92 1007.8
20260904102101 51 15 1.0 3.0 0.00 0.04 0.00 92 1007.8
20260904101602 51 15 0.0 5.0 0.00 0.04 0.00 92 1007.7
20260904101100 51 13 0.0 5.0 0.00 0.04 0.00 92 1007.7
20260904100559 51 93 1.0 8.0 0.00 0.04 0.00 92 1007.7
20260904100059 51 207 2.0 8.0 0.00 0.04 0.00 92 1007.7
20260904095559 51 206 0.0 3.0 0.00 0.04 0.00 92 1007.6
20260904095102 51 332 0.0 2.0 0.00 0.04 0.00 92 1007.7
20260904094607 51 38 0.0 3.0 0.00 0.04 0.00 92 1007.7
20260904094058 51 39 0.0 5.0 0.00 0.04 0.00 92 1007.6
20260904093601 51 316 0.0 5.0 0.00 0.04 0.00 92 1007.6
20260904093109 51 260 1.0 5.0 0.00 0.04 0.00 92 1007.6
20260904092556 51 11 0.0 3.0 0.00 0.04 0.00 92 1007.7
20260904092056 52 11 0.0 3.0 0.00 0.04 0.00 92 1007.7
20260904091556 52 11 1.0 5.0 0.00 0.04 0.00 92 1007.7
20260904091056 52 237 1.0 5.0 0.00 0.04 0.00 92 1007.8
20260904090555 52 216 1.0 4.0 0.00 0.04 0.00 92 1007.8
20260904090054 52 262 0.0 1.0 0.00 0.04 0.00 92 1007.8
20260904085554 52 262 0.0 1.0 0.00 0.04 0.00 92 1007.8
20260904085054 52 262 0.0 3.0 0.00 0.04 0.00 92 1007.7
20260904084553 52 262 0.0 4.0 0.00 0.04 0.00 92 1007.7
20260904084053 52 308 1.0 4.0 0.00 0.04 0.00 92 1007.7
20260904083554 52 304 0.0 3.0 0.00 0.04 0.00 92 1007.7
20260904083053 52 307 1.0 3.0 0.00 0.04 0.00 92 1007.7
20260904082554 52 298 1.0 3.0 0.00 0.04 0.00 92 1007.7
20260904082054 52 298 0.0 5.0 0.00 0.04 0.00 92 1007.7
20260904081553 52 300 1.0 5.0 0.00 0.04 0.00 92 1007.7
20260904081054 52 345 0.0 2.0 0.00 0.04 0.00 92 1007.8
20260904080551 52 29 0.0 4.0 0.00 0.04 0.00 92 1007.7
20260904080051 52 50 0.0 4.0 0.00 0.04 0.00 92 1007.7
20260904075551 52 294 1.0 4.0 0.00 0.04 0.00 92 1007.7
20260904075050 52 23 0.0 3.0 0.00 0.04 0.00 92 1007.7
20260904074549 52 215 1.0 3.0 0.00 0.04 0.00 92 1007.7
20260904074053 52 300 0.0 2.0 0.00 0.04 0.00 92 1007.7
20260904073551 52 300 0.0 1.0 0.00 0.04 0.00 92 1007.7
20260904073056 52 300 0.0 3.0 0.00 0.04 0.00 92 1007.8
20260904072547 52 300 0.0 3.0 0.00 0.04 0.00 92 1007.7
20260904072048 52 2 0.0 2.0 0.00 0.04 0.00 92 1007.6
20260904071547 52 2 0.0 3.0 0.00 0.04 0.00 92 1007.7
20260904071047 52 3 0.0 3.0 0.00 0.04 0.00 91 1007.7
20260904070546 53 251 0.0 3.0 0.00 0.04 0.00 91 1007.8
20260904070046 53 251 1.0 3.0 0.00 0.04 0.00 91 1007.8
20260904065547 53 17 1.0 3.0 0.00 0.04 0.04 91 1007.7
20260904065044 53 1 0.0 2.0 0.00 0.04 0.04 91 1007.8
20260904064544 53 360 0.0 2.0 0.00 0.04 0.04 91 1007.7
20260904064045 53 360 0.0 2.0 0.00 0.04 0.04 91 1007.7
20260904063543 53 2 0.0 3.0 0.00 0.04 0.04 91 1007.6
20260904063045 53 17 0.0 3.0 0.00 0.04 0.04 91 1007.6
20260904062541 53 325 0.0 3.0 0.00 0.04 0.04 91 1007.6
20260904062041 53 244 0.0 7.0 0.00 0.04 0.04 91 1007.5
20260904061541 53 244 0.0 7.0 0.00 0.04 0.04 91 1007.5
20260904061041 53 302 1.0 5.0 0.00 0.04 0.04 91 1007.4
20260904060541 53 278 0.0 2.0 0.00 0.04 0.04 91 1007.5
20260904060040 53 279 0.0 2.0 0.00 0.04 0.04 91 1007.5
20260904055540 53 279 0.0 2.0 0.00 0.04 0.04 91 1007.5
20260904055040 53 279 0.0 2.0 0.00 0.04 0.04 91 1007.5
20260904054544 54 263 0.0 4.0 0.00 0.04 0.04 91 1007.4
20260904054040 54 258 1.0 4.0 0.00 0.04 0.04 91 1007.4
20260904053540 54 243 0.0 4.0 0.00 0.04 0.04 91 1007.5
20260904053042 54 40 0.0 6.0 0.00 0.04 0.04 90 1007.4
20260904052539 54 324 0.0 6.0 0.00 0.04 0.04 90 1007.4
20260904052041 54 282 0.0 3.0 0.00 0.04 0.04 90 1007.3
20260904051538 54 291 0.0 1.0 0.00 0.04 0.04 90 1007.4
20260904051038 54 291 0.0 2.0 0.00 0.04 0.04 90 1007.3
20260904050538 54 291 0.0 2.0 0.00 0.04 0.04 90 1007.3
20260904050038 54 291 0.0 2.0 0.00 0.04 0.04 90 1007.4
20260904045538 54 291 0.0 3.0 0.00 0.25 0.04 90 1007.4
20260904045038 54 20 1.0 3.0 0.00 0.25 0.04 90 1007.4
20260904044542 54 20 0.0 3.0 0.00 0.25 0.04 90 1007.3
20260904044037 54 20 1.0 3.0 0.00 0.25 0.04 89 1007.4
20260904043537 54 30 0.0 3.0 0.00 0.25 0.04 89 1007.4
20260904043040 54 19 0.0 2.0 0.00 0.25 0.04 89 1007.4
20260904042538 54 18 0.0 2.0 0.00 0.25 0.04 89 1007.3
20260904042037 55 18 0.0 2.0 0.00 0.25 0.04 88 1007.5
20260904041543 55 18 0.0 1.0 0.00 0.25 0.04 88 1007.4
20260904041036 55 18 0.0 1.0 0.00 0.25 0.04 88 1007.4
20260904040638 55 18 0.0 2.0 0.00 0.25 0.04 88 1007.3
20260904040041 55 18 0.0 3.0 0.00 0.25 0.04 87 1007.3
20260904035542 55 44 0.0 3.0 0.00 0.26 0.04 87 1007.4
20260904035042 55 347 0.0 3.0 0.00 0.26 0.04 87 1007.4
20260904034541 55 84 0.0 2.0 0.00 0.26 0.04 87 1007.4
20260904034041 55 84 0.0 2.0 0.00 0.26 0.04 87 1007.5
20260904033541 56 84 0.0 2.0 0.00 0.26 0.04 86 1007.5
20260904033050 56 84 0.0 1.0 0.00 0.26 0.04 86 1007.3
20260904032539 56 84 0.0 1.0 0.00 0.26 0.04 86 1007.3
20260904032039 56 84 0.0 2.0 0.00 0.26 0.04 86 1007.3
20260904031539 56 84 0.0 2.0 0.00 0.26 0.04 86 1007.2
20260904031041 56 84 0.0 1.0 0.00 0.26 0.04 86 1007.2
20260904030539 56 84 0.0 1.0 0.00 0.26 0.04 86 1007.2
20260904030039 57 84 0.0 2.0 0.00 0.26 0.04 86 1007.2
20260904025539 57 84 1.0 2.0 0.00 0.28 0.04 86 1007.1
20260904025039 57 84 0.0 1.0 0.00 0.28 0.04 86 1007.2
20260904024539 57 84 0.0 0.0 0.00 0.28 0.04 85 1007.1
20260904024038 58 84 0.0 1.0 0.00 0.28 0.04 85 1007.1
20260904023538 58 84 0.0 1.0 0.00 0.28 0.04 84 1007.0
20260904023040 58 84 0.0 1.0 0.00 0.28 0.04 84 1007.1
20260904022538 58 84 0.0 2.0 0.00 0.28 0.04 83 1007.0
20260904022038 58 84 0.0 2.0 0.00 0.28 0.04 83 1007.0
20260904021537 58 84 0.0 2.0 0.00 0.28 0.04 83 1007.0
20260904021037 58 84 0.0 1.0 0.00 0.28 0.04 83 1006.9
20260904020537 59 84 0.0 1.0 0.00 0.28 0.04 84 1007.0
20260904020037 59 84 0.0 2.0 0.00 0.28 0.04 83 1006.9
20260904015537 59 84 0.0 2.0 0.00 0.37 0.04 82 1006.9
20260904015037 59 84 0.0 3.0 0.00 0.37 0.04 82 1006.9
20260904014557 59 84 0.0 3.0 0.00 0.37 0.04 82 1007.0
20260904014037 60 106 0.0 0.0 0.00 0.37 0.04 81 1006.9
20260904013536 60 106 0.0 0.0 0.00 0.37 0.04 80 1006.9
20260904013036 60 106 0.0 0.0 0.00 0.37 0.04 79 1006.9
20260904012538 60 106 0.0 0.0 0.00 0.37 0.04 79 1006.9
20260904012036 60 106 0.0 0.0 0.00 0.37 0.04 78 1006.8
20260904011536 60 106 0.0 0.0 0.00 0.37 0.04 77 1006.8
20260904011035 61 106 0.0 0.0 0.00 0.37 0.04 75 1006.7
20260904010535 61 106 0.0 0.0 0.00 0.37 0.04 74 1006.7
20260904010035 61 106 0.0 2.0 0.00 0.37 0.04 75 1006.7
20260904005536 61 106 0.0 2.0 0.00 0.53 0.04 73 1006.7
20260904005035 61 106 0.0 2.0 0.00 0.53 0.04 72 1006.7
20260904004535 62 106 0.0 2.0 0.00 0.53 0.04 73 1006.7
20260904004035 62 158 0.0 2.0 0.00 0.53 0.04 71 1006.6
20260904003534 62 158 0.0 2.0 0.00 0.53 0.04 73 1006.6
20260904003037 62 158 0.0 2.0 0.00 0.53 0.04 73 1006.7
20260904002534 62 158 0.0 4.0 0.00 0.53 0.04 72 1006.7
20260904002034 62 158 1.0 4.0 0.00 0.53 0.04 70 1006.8
20260904001534 62 148 0.0 4.0 0.00 0.53 0.04 70 1006.8
20260904001034 62 64 0.0 3.0 0.00 0.53 0.04 71 1006.8
20260904000534 62 178 0.0 4.0 0.00 0.53 0.04 68 1006.7
20260904000033 63 159 0.0 4.0 0.00 0.53 0.04 67 1006.8
20260903235534 63 129 1.0 4.0 0.00 0.57 0.04 67 1006.8
20260903235034 63 193 1.0 4.0 0.00 0.57 0.04 67 1006.8
20260903234533 63 67 0.0 3.0 0.00 0.57 0.04 67 1006.8
20260903234033 63 67 0.0 3.0 0.00 0.57 0.04 69 1006.8
20260903233533 63 123 0.0 3.0 0.00 0.57 0.04 69 1006.8
20260903233033 63 117 0.0 4.0 0.00 0.57 0.04 64 1006.7
20260903232532 63 117 1.0 6.0 0.00 0.57 0.04 63 1006.8
20260903232032 63 261 1.0 6.0 0.00 0.57 0.04 63 1006.7
20260903231532 63 143 2.0 5.0 0.00 0.57 0.04 62 1006.7
20260903231031 64 68 1.0 8.0 0.00 0.57 0.04 61 1006.7
20260903230631 64 76 0.0 9.0 0.00 0.57 0.04 63 1006.7
20260903225548 66 161 1.0 5.0 0.00 0.57 0.04 59 1006.6
20260903225047 66 159 2.0 8.0 0.00 0.57 0.04 61 1006.6
20260903224549 67 123 1.0 8.0 0.00 0.57 0.04 60 1006.7
20260903224046 67 117 1.0 4.0 0.00 0.57 0.04 61 1006.6
20260903223544 66 273 2.0 5.0 0.00 0.57 0.04 60 1006.6
20260903223045 66 119 0.0 6.0 0.00 0.57 0.04 66 1006.6
20260903222543 66 128 2.0 6.0 0.00 0.57 0.04 61 1006.7
20260903222045 65 219 2.0 7.0 0.00 0.57 0.04 60 1006.7
20260903221543 64 131 0.0 4.0 0.00 0.57 0.04 68 1006.8
20260903221043 64 130 2.0 7.0 0.00 0.57 0.04 67 1006.8
20260903220642 64 156 1.0 7.0 0.00 0.57 0.04 67 1006.8
20260903220041 65 161 2.0 6.0 0.00 0.57 0.04 65 1007.0
20260903215537 65 338 2.0 5.0 0.00 0.60 0.04 65 1006.9
20260903215037 64 130 2.0 4.0 0.00 0.60 0.04 70 1007.0
20260903214543 63 223 0.0 3.0 0.00 0.60 0.04 72 1007.0
20260903214037 62 220 1.0 4.0 0.00 0.60 0.04 71 1007.0
20260903213536 62 238 1.0 5.0 0.00 0.60 0.04 71 1007.0
20260903213041 62 254 3.0 5.0 0.00 0.60 0.04 71 1007.1
20260903212535 62 167 1.0 6.0 0.00 0.60 0.04 71 1007.0
20260903212036 63 306 0.0 7.0 0.00 0.60 0.04 72 1007.1
20260903211535 63 294 2.0 7.0 0.00 0.60 0.04 72 1007.1
20260903211036 62 142 2.0 6.0 0.00 0.60 0.04 72 1007.1
20260903210635 62 142 3.0 6.0 0.00 0.60 0.04 70 1007.1
20260903210058 63 92 2.0 9.0 0.00 0.60 0.04 68 1007.0
20260903205554 65 150 3.0 8.0 0.00 0.60 0.04 62 1007.1
20260903205053 65 214 2.0 8.0 0.00 0.60 0.04 64 1007.0
20260903204553 64 171 3.0 8.0 0.00 0.60 0.04 65 1007.0
20260903204050 63 221 2.0 5.0 0.00 0.60 0.04 70 1007.0
20260903203549 63 140 1.0 4.0 0.00 0.60 0.04 72 1006.9
20260903203049 62 119 0.0 4.0 0.00 0.60 0.04 78 1007.0
20260903202552 61 180 1.0 4.0 0.00 0.60 0.04 75 1007.0
20260903202048 61 188 0.0 3.0 0.00 0.60 0.04 78 1007.0
20260903201548 62 192 0.0 4.0 0.00 0.60 0.04 77 1007.0
20260903201047 62 192 1.0 6.0 0.00 0.60 0.04 78 1007.0
20260903200647 62 157 2.0 6.0 0.00 0.60 0.04 78 1007.0
20260903200056 61 204 2.0 6.0 0.00 0.60 0.04 81 1007.1
20260903195555 60 96 1.0 4.0 0.00 0.60 0.04 84 1007.2
20260903195056 60 138 2.0 4.0 0.00 0.60 0.04 83 1007.2
20260903194557 60 210 1.0 4.0 0.00 0.60 0.04 84 1007.2
20260903194055 60 5 1.0 4.0 0.00 0.60 0.04 85 1007.3
20260903193556 60 241 1.0 7.0 0.00 0.60 0.04 86 1007.2
20260903193057 60 142 1.0 7.0 0.00 0.60 0.04 84 1007.3
20260903192555 60 241 1.0 5.0 0.00 0.60 0.04 83 1007.2
20260903192051 59 359 0.0 11.0 0.00 0.60 0.04 88 1007.2
20260903191551 59 301 1.0 11.0 0.00 0.60 0.04 89 1007.0
20260903191049 58 279 1.0 5.0 0.00 0.60 0.04 91 1007.2
20260903190548 57 277 2.0 7.0 0.00 0.60 0.04 90 1007.1
20260903190048 57 200 2.0 7.0 0.00 0.60 0.04 92 1007.0
20260903185546 57 321 0.0 3.0 0.00 0.60 0.04 92 1007.0
20260903185045 56 321 0.0 4.0 0.01 0.60 0.04 92 1007.2
20260903184544 56 321 0.0 4.0 0.01 0.60 0.04 93 1007.2
20260903184042 55 48 1.0 4.0 0.01 0.60 0.04 93 1007.3
20260903183544 55 261 1.0 2.0 0.01 0.60 0.04 93 1007.2
20260903183040 55 271 1.0 4.0 0.01 0.60 0.04 93 1007.2
20260903182542 55 271 0.0 4.0 0.01 0.60 0.04 92 1007.1
20260903182039 55 256 0.0 3.0 0.01 0.60 0.04 92 1007.1
20260903181539 55 256 1.0 3.0 0.01 0.60 0.04 93 1007.1
20260903181038 55 327 0.0 2.0 0.01 0.60 0.04 93 1007.1
20260903180637 54 327 0.0 2.0 0.01 0.60 0.04 92 1007.1
20260903175553 55 327 0.0 1.0 0.00 0.59 0.03 92 1006.9
20260903175053 55 327 0.0 1.0 0.00 0.59 0.03 92 1006.9
20260903174556 55 327 0.0 1.0 0.00 0.59 0.03 92 1006.8
20260903174053 55 327 0.0 1.0 0.00 0.59 0.03 92 1006.8
20260903173552 55 327 0.0 2.0 0.00 0.59 0.03 92 1006.8
20260903173101 55 327 0.0 2.0 0.00 0.59 0.03 92 1006.7
20260903172555 55 327 0.0 2.0 0.00 0.59 0.03 92 1006.7
20260903172050 55 327 0.0 3.0 0.00 0.59 0.03 92 1006.6
20260903171549 55 327 0.0 3.0 0.00 0.59 0.03 92 1006.5